| time (UTC) | temp F | wind direction | speed knots | gust knots | rain 1hr in | rain 24hr in | rain mn in | humidity % | barometer mb |
| 20260503021326 | 51 | 0.0 | 0.0 | 0.01 | 0.59 | 0.22 | 97 | 1010.5 | |
| 20260503020346 | 51 | 0.0 | 0.0 | 0.01 | 0.59 | 0.22 | 97 | 1010.6 | |
| 20260503015327 | 51 | 0.0 | 0.0 | 0.02 | 0.59 | 0.22 | 97 | 1010.7 | |
| 20260503014319 | 51 | 0.0 | 0.0 | 0.04 | 0.59 | 0.22 | 97 | 1010.8 | |
| 20260503013320 | 51 | 271 | 0.0 | 1.7 | 0.06 | 0.59 | 0.22 | 96 | 1010.8 |
| 20260503012317 | 51 | 281 | 0.0 | 1.7 | 0.08 | 0.59 | 0.22 | 96 | 1010.9 |
| 20260503011320 | 51 | 266 | 0.0 | 0.9 | 0.09 | 0.59 | 0.21 | 96 | 1011.0 |
| 20260503010337 | 51 | 308 | 0.0 | 1.7 | 0.10 | 0.58 | 0.21 | 96 | 1011.1 |
| 20260503005340 | 51 | 279 | 0.0 | 0.9 | 0.10 | 0.57 | 0.19 | 96 | 1011.0 |
| 20260503004321 | 51 | 0.0 | 0.0 | 0.09 | 0.55 | 0.17 | 96 | 1011.2 | |
| 20260503003318 | 51 | 0.0 | 0.0 | 0.08 | 0.53 | 0.16 | 96 | 1011.3 | |
| 20260503002318 | 51 | 302 | 0.0 | 0.9 | 0.09 | 0.51 | 0.14 | 96 | 1011.4 |
| 20260503001318 | 51 | 0.0 | 0.0 | 0.09 | 0.49 | 0.12 | 96 | 1011.4 | |
| 20260503000319 | 51 | 271 | 0.0 | 1.7 | 0.10 | 0.48 | 0.11 | 96 | 1011.5 |
| 20260502235318 | 51 | 256 | 0.0 | 1.7 | 0.11 | 0.47 | 0.10 | 96 | 1011.6 |
| 20260502234339 | 51 | 0.0 | 0.0 | 0.13 | 0.46 | 0.09 | 96 | 1011.7 | |
| 20260502233319 | 51 | 0.0 | 0.0 | 0.15 | 0.45 | 0.08 | 95 | 1011.7 | |
| 20260502232319 | 51 | 263 | 0.0 | 1.7 | 0.15 | 0.43 | 0.05 | 95 | 1011.7 |
| 20260502231320 | 51 | 0.0 | 0.0 | 0.16 | 0.41 | 0.03 | 95 | 1011.8 | |
| 20260502230317 | 51 | 0.0 | 0.0 | 0.17 | 0.38 | 0.01 | 95 | 1011.8 | |
| 20260502225319 | 51 | 249 | 0.9 | 1.7 | 0.17 | 0.36 | 0.36 | 95 | 1011.8 |
| 20260502224339 | 51 | 288 | 0.0 | 1.7 | 0.16 | 0.33 | 0.33 | 95 | 1011.8 |
| 20260502223340 | 51 | 233 | 0.0 | 1.7 | 0.15 | 0.31 | 0.31 | 94 | 1011.8 |
| 20260502222317 | 51 | 288 | 0.0 | 0.9 | 0.14 | 0.28 | 0.28 | 94 | 1011.8 |
| 20260502221317 | 51 | 279 | 0.0 | 1.7 | 0.13 | 0.25 | 0.25 | 94 | 1011.9 |
| 20260502220340 | 51 | 0.0 | 0.0 | 0.11 | 0.21 | 0.21 | 94 | 1011.9 | |
| 20260502215400 | 51 | 0.0 | 0.0 | 0.10 | 0.19 | 0.19 | 94 | 1012.0 | |
| 20260502214317 | 51 | 0.0 | 0.0 | 0.10 | 0.18 | 0.18 | 93 | 1012.1 | |
| 20260502213318 | 51 | 0.0 | 0.0 | 0.09 | 0.15 | 0.15 | 93 | 1012.2 | |
| 20260502212318 | 51 | 0.0 | 0.0 | 0.08 | 0.14 | 0.14 | 93 | 1012.2 | |
| 20260502211319 | 52 | 271 | 0.0 | 0.9 | 0.07 | 0.12 | 0.12 | 92 | 1012.2 |
| 20260502210318 | 52 | 0.0 | 0.0 | 0.07 | 0.10 | 0.10 | 92 | 1012.2 | |
| 20260502205318 | 52 | 0.0 | 0.0 | 0.07 | 0.09 | 0.09 | 92 | 1012.3 | |
| 20260502204359 | 52 | 0.0 | 0.0 | 0.06 | 0.08 | 0.08 | 92 | 1012.4 | |
| 20260502203319 | 52 | 0.0 | 0.0 | 0.06 | 0.07 | 0.07 | 91 | 1012.5 | |
| 20260502202319 | 52 | 0.0 | 0.0 | 0.04 | 0.05 | 0.05 | 91 | 1012.5 | |
| 20260502201339 | 52 | 0.0 | 0.0 | 0.04 | 0.04 | 0.04 | 91 | 1012.6 | |
| 20260502200319 | 52 | 0.0 | 0.0 | 0.03 | 0.03 | 0.03 | 90 | 1012.6 | |
| 20260502195320 | 52 | 0.0 | 0.0 | 0.02 | 0.02 | 0.02 | 90 | 1012.7 | |
| 20260502194339 | 52 | 285 | 0.0 | 1.7 | 0.01 | 0.01 | 0.01 | 89 | 1012.6 |
| 20260502193317 | 53 | 0.0 | 0.0 | 0.01 | 0.01 | 0.01 | 88 | 1012.6 | |
| 20260502192337 | 53 | 277 | 0.0 | 1.7 | 0.01 | 0.01 | 0.01 | 87 | 1012.6 |
| 20260502191320 | 53 | 0.0 | 0.0 | 0.00 | 0.00 | 0.00 | 87 | 1012.7 | |
| 20260502190320 | 53 | 280 | 0.0 | 1.7 | 0.00 | 0.00 | 0.00 | 86 | 1012.7 |
| 20260502185337 | 54 | 318 | 0.0 | 0.9 | 0.00 | 0.00 | 0.00 | 84 | 1012.6 |
| 20260502184317 | 54 | 303 | 0.0 | 0.9 | 0.00 | 0.00 | 0.00 | 83 | 1012.6 |
| 20260502183317 | 54 | 0.0 | 0.0 | 0.00 | 0.00 | 0.00 | 81 | 1012.7 | |
| 20260502182318 | 55 | 0.0 | 0.0 | 0.00 | 0.00 | 0.00 | 79 | 1012.7 | |
| 20260502181321 | 55 | 0.0 | 0.0 | 0.00 | 0.00 | 0.00 | 77 | 1012.7 | |
| 20260502180318 | 56 | 248 | 0.0 | 1.7 | 0.00 | 0.00 | 0.00 | 76 | 1012.8 |
| 20260502170319 | 56 | 0.0 | 0.0 | 0.00 | 0.00 | 0.00 | 75 | 1013.1 | |
| 20260502164319 | 56 | 295 | 0.9 | 3.5 | 0.00 | 0.00 | 0.00 | 75 | 1013.1 |
| 20260502163337 | 56 | 246 | 0.0 | 0.9 | 0.00 | 0.00 | 0.00 | 74 | 1013.1 |
| 20260502162317 | 57 | 294 | 0.9 | 2.6 | 0.00 | 0.00 | 0.00 | 74 | 1013.2 |
| 20260502161320 | 57 | 292 | 0.9 | 2.6 | 0.00 | 0.00 | 0.00 | 74 | 1013.3 |
| 20260502160320 | 58 | 5 | 0.9 | 2.6 | 0.00 | 0.00 | 0.00 | 74 | 1013.4 |
| 20260502152318 | 60 | 343 | 1.7 | 4.3 | 0.00 | 0.00 | 0.00 | 70 | 1013.9 |
| 20260502151338 | 60 | 306 | 1.7 | 5.2 | 0.00 | 0.00 | 0.00 | 69 | 1013.8 |
| 20260502150318 | 60 | 306 | 0.9 | 4.3 | 0.00 | 0.00 | 0.00 | 70 | 1013.9 |
| 20260502130320 | 64 | 5 | 0.0 | 0.9 | 0.00 | 0.00 | 0.00 | 55 | 1014.9 |
| 20260502123318 | 62 | 227 | 1.7 | 3.5 | 0.00 | 0.00 | 0.00 | 58 | 1015.4 |
| 20260502122318 | 62 | 208 | 1.7 | 4.3 | 0.00 | 0.00 | 0.00 | 57 | 1015.5 |
| 20260502121318 | 61 | 215 | 2.6 | 4.3 | 0.00 | 0.00 | 0.00 | 59 | 1015.7 |
| 20260502120318 | 62 | 208 | 0.9 | 2.6 | 0.00 | 0.00 | 0.00 | 57 | 1015.9 |
| 20260502115318 | 60 | 0.0 | 0.0 | 0.00 | 0.01 | 0.00 | 61 | 1016.1 | |
| 20260502114339 | 60 | 121 | 0.9 | 2.6 | 0.00 | 0.02 | 0.00 | 61 | 1016.1 |
| 20260502113318 | 60 | 297 | 0.9 | 2.6 | 0.00 | 0.03 | 0.00 | 66 | 1016.2 |
| 20260502112319 | 60 | 135 | 0.0 | 1.7 | 0.00 | 0.05 | 0.00 | 64 | 1016.3 |
| 20260502111319 | 60 | 195 | 1.7 | 3.5 | 0.00 | 0.07 | 0.00 | 62 | 1016.3 |
| 20260502110319 | 60 | 202 | 1.7 | 3.5 | 0.00 | 0.10 | 0.00 | 62 | 1016.3 |
| 20260502105320 | 59 | 222 | 1.7 | 2.6 | 0.00 | 0.10 | 0.00 | 61 | 1016.4 |
| 20260502104316 | 59 | 222 | 2.6 | 5.2 | 0.00 | 0.10 | 0.00 | 63 | 1016.4 |
| 20260502103316 | 58 | 206 | 2.6 | 5.2 | 0.00 | 0.10 | 0.00 | 66 | 1016.3 |
| 20260502102320 | 57 | 242 | 2.6 | 4.3 | 0.00 | 0.10 | 0.00 | 69 | 1016.3 |
| 20260502101320 | 57 | 209 | 0.9 | 2.6 | 0.00 | 0.10 | 0.00 | 71 | 1016.4 |
| 20260502100320 | 57 | 219 | 0.0 | 1.7 | 0.00 | 0.10 | 0.00 | 71 | 1016.6 |
| 20260502091318 | 58 | 202 | 1.7 | 3.5 | 0.00 | 0.10 | 0.00 | 70 | 1017.0 |
| 20260502090318 | 58 | 141 | 0.9 | 3.5 | 0.00 | 0.10 | 0.00 | 69 | 1017.0 |
| 20260502071320 | 53 | 146 | 0.0 | 1.7 | 0.00 | 0.10 | 0.00 | 81 | 1017.2 |
| 20260502070320 | 54 | 120 | 1.7 | 2.6 | 0.00 | 0.10 | 0.00 | 80 | 1017.2 |
| 20260502065317 | 55 | 109 | 0.9 | 2.6 | 0.00 | 0.10 | 0.00 | 78 | 1017.1 |
| 20260502064317 | 55 | 156 | 0.0 | 1.7 | 0.00 | 0.10 | 0.00 | 81 | 1017.0 |
| 20260502063317 | 53 | 137 | 0.9 | 2.6 | 0.00 | 0.10 | 0.00 | 84 | 1016.8 |
| 20260502062317 | 51 | 0.0 | 0.0 | 0.00 | 0.10 | 0.00 | 87 | 1016.8 | |
| 20260502061318 | 50 | 0.0 | 0.0 | 0.00 | 0.10 | 0.00 | 90 | 1016.8 | |
| 20260502060318 | 49 | 51 | 0.0 | 0.9 | 0.00 | 0.10 | 0.00 | 91 | 1016.8 |
| 20260502055318 | 48 | 125 | 0.9 | 1.7 | 0.00 | 0.10 | 0.00 | 92 | 1016.8 |
| 20260502054318 | 48 | 0.0 | 0.0 | 0.00 | 0.10 | 0.00 | 92 | 1016.8 | |
| 20260502053318 | 47 | 0.0 | 0.0 | 0.00 | 0.10 | 0.00 | 93 | 1016.9 | |
| 20260502052319 | 47 | 0.0 | 0.0 | 0.00 | 0.10 | 0.00 | 93 | 1016.9 | |
| 20260502051319 | 46 | 0.0 | 0.0 | 0.00 | 0.10 | 0.00 | 93 | 1016.8 | |
| 20260502050319 | 45 | 139 | 0.0 | 0.0 | 0.00 | 0.10 | 0.00 | 93 | 1016.8 |
| 20260502045319 | 44 | 0.0 | 0.0 | 0.00 | 0.10 | 0.00 | 92 | 1016.9 | |
| 20260502044319 | 45 | 101 | 0.0 | 0.9 | 0.00 | 0.10 | 0.00 | 92 | 1016.9 |
| 20260502043340 | 45 | 0.0 | 0.0 | 0.00 | 0.10 | 0.00 | 92 | 1016.8 | |
| 20260502042320 | 45 | 0.0 | 0.0 | 0.00 | 0.10 | 0.00 | 92 | 1016.7 | |
| 20260502041320 | 45 | 0.0 | 0.0 | 0.00 | 0.10 | 0.00 | 92 | 1016.9 | |
| 20260502040320 | 46 | 60 | 0.0 | 0.0 | 0.00 | 0.10 | 0.00 | 92 | 1017.0 |
| 20260502035320 | 47 | 0.0 | 0.0 | 0.00 | 0.10 | 0.00 | 92 | 1017.0 | |
| 20260502034340 | 47 | 142 | 0.9 | 1.7 | 0.00 | 0.10 | 0.00 | 92 | 1017.1 |
| 20260502033321 | 47 | 0.0 | 0.0 | 0.00 | 0.10 | 0.00 | 92 | 1017.2 | |
| 20260502032321 | 47 | 172 | 0.0 | 0.9 | 0.00 | 0.10 | 0.00 | 92 | 1017.3 |
| 20260502031321 | 47 | 113 | 0.0 | 1.7 | 0.00 | 0.10 | 0.00 | 92 | 1017.3 |
| 20260502030321 | 46 | 132 | 0.9 | 1.7 | 0.00 | 0.10 | 0.00 | 92 | 1017.4 |
| 20260502025321 | 46 | 0.0 | 0.0 | 0.00 | 0.10 | 0.00 | 91 | 1017.4 | |
| 20260502024321 | 46 | 0.0 | 0.0 | 0.00 | 0.10 | 0.00 | 91 | 1017.4 | |
| 20260502023321 | 46 | 0.0 | 0.0 | 0.00 | 0.10 | 0.00 | 91 | 1017.5 | |
| 20260502022321 | 47 | 0.0 | 0.0 | 0.00 | 0.10 | 0.00 | 90 | 1017.6 |